Waarnemingen

Advertentie
Mijn weer
Altnaharra, Groot Brittannië (3044): temperatuur & dauwpunt: 14.10.2018 21:00:00 - 20.10.2018 21:00:00 (BST)Altnaharra, Groot Brittannië (3044): temperatuur -20cm & temperatuur -100cm: 14.10.2018 21:00:00 - 20.10.2018 21:00:00 (BST)Altnaharra, Groot Brittannië (3044): windsnelheid & windstoten: 14.10.2018 21:00:00 - 20.10.2018 21:00:00 (BST)Altnaharra, Groot Brittannië (3044): windrichting: 14.10.2018 21:00:00 - 20.10.2018 21:00:00 (BST)Altnaharra, Groot Brittannië (3044): luchtdruk: 14.10.2018 21:00:00 - 20.10.2018 21:00:00 (BST)Altnaharra, Groot Brittannië (3044): zicht: 14.10.2018 21:00:00 - 20.10.2018 21:00:00 (BST)Altnaharra, Groot Brittannië (3044): Zonneschijnduur: 14.10.2018 21:00:00 - 20.10.2018 21:00:00 (BST)Altnaharra, Groot Brittannië (3044): neerslag: 14.10.2018 21:00:00 - 20.10.2018 21:00:00 (BST)
Datum & Tijd tt [°C] td [°C] tt -20cm [°C] tt -100cm [°C] ff [km/u] ff [kn] fx [km/u] fx [kn] dd ppp [hPa] vv [km] sd [min] rr [mm]
20.10.2018 21:00:00 14,8 12,5 - - 13 7 - - ZZW 1017,7 40 0 0,0
20.10.2018 20:00:00 15,3 13,1 - - 11 6 - - Z 1017,7 50 0 0,0
20.10.2018 19:00:00 15,1 12,7 - - 15 8 - - ZW 1017,7 50 0 0,0
20.10.2018 18:00:00 15,0 12,9 - - 8 4 - - ZW 1017,7 19 0 0,0
20.10.2018 17:00:00 16,0 13,4 - - 11 6 - - ZZW 1017,2 35 0 0,0
20.10.2018 16:00:00 16,6 13,3 - - 16 9 - - ZW 1017,4 45 0 0,0
20.10.2018 15:00:00 17,7 13,7 - - 13 7 - - ZZW 1017,3 45 6 0,0
20.10.2018 14:00:00 16,3 14,4 - - 16 9 - - Z 1017,3 50 0 0,0
20.10.2018 13:00:00 15,6 12,7 - - 18 10 - - Z 1017,5 45 0 0,0
20.10.2018 12:00:00 14,7 11,4 - - 16 9 - - ZZW 1017,6 50 0 0,0
20.10.2018 11:00:00 14,0 10,2 - - 28 15 - - Z 1017,6 22 6 -
20.10.2018 10:00:00 14,8 10,1 9,7 10,7 18 10 48 26 ZZW 1017,5 50 0 0,0
20.10.2018 09:00:00 14,6 10,6 - - 18 10 - - ZZW 1017,2 50 0 0,0
20.10.2018 08:00:00 11,7 9,5 - - 15 8 - - Z 1017,1 50 0 0,0
20.10.2018 07:00:00 7,8 5,2 - - 8 4 - - WNW 1018,5 45 0 0,0
20.10.2018 06:00:00 7,8 4,9 - - 5 3 - - W 1019,0 40 0 0,0
20.10.2018 05:00:00 7,1 4,9 - - 8 4 - - WNW 1019,9 40 0 0,0
20.10.2018 04:00:00 8,6 4,3 - - 13 7 - - ZZW 1020,6 40 0 0,0
20.10.2018 03:00:00 7,6 4,5 - - 11 6 - - ZW 1020,8 45 0 0,0
20.10.2018 02:00:00 8,0 4,3 - - 13 7 - - Z 1022,0 35 0 0,0
20.10.2018 01:00:00 7,4 4,3 - - 13 7 - - Z 1022,2 45 - 0,0
20.10.2018 00:00:00 7,3 5,3 - - 8 4 - - Z 1022,5 29 0 0,0
19.10.2018 23:00:00 7,5 5,9 - - 13 7 - - Z 1022,8 29 0 0,0
19.10.2018 22:00:00 7,7 5,7 - - 15 8 - - Z 1022,4 24 0 0,0
19.10.2018 21:00:00 8,0 5,9 - - 11 6 - - Z 1021,7 21 0 0,0
19.10.2018 20:00:00 5,7 4,2 - - 5 3 - - OZO 1021,4 16 0 0,0
19.10.2018 19:00:00 8,4 5,2 - - 11 6 - - WZW 1021,4 24 0 0,0
19.10.2018 18:00:00 8,8 5,1 - - 16 9 - - WZW 1020,5 28 0 0,0
19.10.2018 17:00:00 10,1 5,5 - - 18 10 - - WZW 1020,1 30 18 0,0
19.10.2018 16:00:00 10,6 5,7 - - 26 14 46 25 WZW 1019,1 50 30 0,0
19.10.2018 15:00:00 10,8 5,6 - - 31 17 46 25 WZW 1018,1 50 6 0,0
19.10.2018 14:00:00 10,0 7,0 - - 26 14 46 25 W 1017,7 30 0 0,0
19.10.2018 13:00:00 10,8 5,5 - - 22 12 - - WZW 1016,6 29 0 0,0
19.10.2018 12:00:00 10,5 7,6 - - 13 7 46 25 WZW 1015,9 21 0 0,2
19.10.2018 11:00:00 9,7 8,7 - - 16 9 - - Z 1014,6 5 0 0,6
19.10.2018 10:00:00 9,3 7,9 10,0 10,7 18 10 - - Z 1014,3 5 0 0,8
19.10.2018 09:00:00 8,7 6,6 - - 11 6 - - Z 1014,0 11 0 0,2
19.10.2018 08:00:00 9,2 4,5 - - 9 5 - - Z 1014,3 30 0 0,0
19.10.2018 07:00:00 8,9 2,9 - - 5 3 - - Z 1014,6 45 0 0,0
19.10.2018 06:00:00 9,6 3,1 - - 11 6 - - Z 1014,9 50 0 0,0
19.10.2018 05:00:00 9,2 3,4 - - 11 6 - - Z 1016,0 50 0 0,0
19.10.2018 04:00:00 8,7 3,2 - - 15 8 - - Z 1017,2 40 0 0,0
19.10.2018 03:00:00 8,4 3,4 - - 15 8 - - Z 1018,2 50 0 0,0
19.10.2018 02:00:00 8,9 3,5 - - 8 4 - - ZZW 1018,6 30 0 0,0
19.10.2018 01:00:00 8,3 4,0 - - 4 2 - - ZZO 1019,7 50 - 0,0
19.10.2018 00:00:00 8,8 4,3 - - 11 6 - - Z 1020,3 35 0 0,0
18.10.2018 23:00:00 8,7 4,4 - - 9 5 - - Z 1021,4 50 0 0,0
18.10.2018 22:00:00 8,5 4,7 - - 13 7 - - ZO 1021,9 45 0 0,0
18.10.2018 21:00:00 8,9 4,9 - - 9 5 - - ZZO 1022,8 50 0 0,0
18.10.2018 20:00:00 8,7 4,6 - - 5 3 - - ZZO 1023,0 50 0 0,0
18.10.2018 19:00:00 8,9 5,2 - - 11 6 - - Z 1023,5 50 0 0,0
18.10.2018 18:00:00 9,1 5,8 - - 9 5 - - ZO 1023,8 35 0 0,0
18.10.2018 17:00:00 9,9 5,8 - - 13 7 - - Z 1023,9 50 0 0,0
18.10.2018 16:00:00 10,5 5,0 - - 13 7 - - Z 1024,2 50 0 0,0
18.10.2018 15:00:00 10,9 5,1 - - 16 9 - - Z 1024,3 30 24 0,0
18.10.2018 14:00:00 11,2 4,6 - - 11 6 - - Z 1024,9 50 12 0,0
18.10.2018 13:00:00 10,1 4,9 - - 8 4 - - Z 1025,5 40 18 0,0
18.10.2018 12:00:00 9,5 5,2 - - 9 5 - - ZZW 1025,7 45 0 0,0
18.10.2018 11:00:00 9,2 6,1 - - 15 8 - - ZZO 1026,0 35 0 0,0
18.10.2018 10:00:00 8,9 5,4 10,0 10,7 15 8 - - Z 1025,9 50 0 0,0
18.10.2018 09:00:00 8,2 5,0 - - 13 7 - - Z 1025,7 35 0 0,0
18.10.2018 08:00:00 8,5 4,6 - - 9 5 - - ZZW 1025,3 45 0 0,0
18.10.2018 07:00:00 8,3 4,6 - - 11 6 - - ZW 1025,2 40 0 0,0
18.10.2018 06:00:00 8,4 4,4 - - 13 7 - - ZZW 1024,8 50 0 0,0
18.10.2018 05:00:00 7,9 3,6 - - 13 7 - - Z 1024,6 40 0 0,0
18.10.2018 04:00:00 8,0 3,3 - - 11 6 - - ZW 1024,2 40 0 0,0
18.10.2018 03:00:00 7,8 3,7 - - 11 6 - - ZW 1024,1 35 0 0,0
18.10.2018 02:00:00 7,6 3,3 - - 13 7 - - ZW 1024,0 40 0 0,0
18.10.2018 01:00:00 7,3 3,8 - - 13 7 - - Z 1023,7 50 - 0,0
18.10.2018 00:00:00 6,9 3,5 - - 13 7 - - Z 1023,1 35 0 0,0
17.10.2018 23:00:00 7,6 5,0 - - 8 4 - - ZZW 1023,0 45 0 0,0
17.10.2018 22:00:00 7,0 3,9 - - 9 5 - - Z 1022,6 40 0 0,0
17.10.2018 21:00:00 8,0 4,8 - - 9 5 - - ZZW 1021,9 23 0 0,0
17.10.2018 20:00:00 6,9 4,1 - - 9 5 - - ZZW 1021,1 45 0 0,0
17.10.2018 19:00:00 6,9 4,3 - - 5 3 - - ZZW 1020,0 45 0 0,0
17.10.2018 18:00:00 7,4 4,3 - - 9 5 - - ZW 1018,9 45 6 0,0
17.10.2018 17:00:00 8,9 4,9 - - 13 7 - - ZW 1018,4 12 24 0,0
17.10.2018 16:00:00 9,6 4,2 - - 13 7 - - ZW 1017,3 45 24 0,0
17.10.2018 15:00:00 10,5 4,7 - - 16 9 - - ZW 1016,6 45 36 0,2
17.10.2018 14:00:00 10,0 6,7 - - 24 13 - - WZW 1015,8 40 42 0,0
17.10.2018 13:00:00 10,3 4,5 - - 16 9 - - ZW 1014,9 40 30 0,0
17.10.2018 12:00:00 10,1 5,8 - - 16 9 - - ZW 1014,5 19 36 0,0
17.10.2018 11:00:00 9,6 5,7 - - 13 7 - - ZZW 1013,5 29 36 0,2
17.10.2018 10:00:00 8,9 5,2 10,2 10,7 13 7 - - Z 1012,7 13 48 0,0
17.10.2018 09:00:00 7,7 4,4 - - 11 6 - - ZW 1011,6 40 6 0,0
17.10.2018 08:00:00 7,7 5,1 - - 15 8 - - ZW 1010,4 35 0 0,2
17.10.2018 07:00:00 7,5 4,1 - - 15 8 - - ZZW 1009,2 30 0 0,0
17.10.2018 06:00:00 8,1 5,4 - - 16 9 - - ZW 1008,7 10 0 0,2
17.10.2018 05:00:00 8,1 4,8 - - 13 7 - - WZW 1008,0 30 0 0,0
17.10.2018 04:00:00 8,8 4,4 - - 15 8 - - ZW 1007,6 45 0 0,2
17.10.2018 03:00:00 9,6 4,7 - - 11 6 - - ZW 1006,6 30 0 0,0
17.10.2018 02:00:00 9,6 6,2 - - 11 6 - - ZW 1005,7 45 0 0,0
17.10.2018 01:00:00 10,0 7,3 - - 18 10 - - ZZW 1004,9 25 - 0,0
17.10.2018 00:00:00 9,9 6,2 - - 15 8 - - Z 1004,5 45 0 0,0
16.10.2018 23:00:00 10,0 6,8 - - 13 7 - - ZZW 1003,7 50 0 0,0
16.10.2018 22:00:00 10,0 7,1 - - 15 8 - - Z 1003,3 50 0 0,0
16.10.2018 21:00:00 10,1 7,0 - - 11 6 - - Z 1003,4 50 0 0,0
16.10.2018 20:00:00 11,2 8,0 - - 16 9 - - Z 1002,8 50 0 0,0
16.10.2018 19:00:00 12,3 8,0 - - 21 11 - - Z 1002,0 35 0 0,0
16.10.2018 18:00:00 12,3 7,6 - - 24 13 - - Z 1001,4 45 0 0,0
16.10.2018 17:00:00 12,7 7,4 - - 22 12 46 25 Z 1000,7 26 18 0,0
16.10.2018 16:00:00 14,0 7,7 - - 24 13 - - Z 1000,6 40 12 0,0
16.10.2018 15:00:00 13,9 9,0 - - 26 14 46 25 Z 1000,6 45 0 0,0
16.10.2018 14:00:00 12,8 6,8 - - 26 14 59 32 ZZO 1000,6 50 0 0,0
16.10.2018 13:00:00 13,1 5,2 - - 39 21 61 33 ZO 1000,4 50 0 0,0
16.10.2018 12:00:00 12,0 4,2 - - 42 23 72 39 ZO 1000,5 50 0 0,0
16.10.2018 11:00:00 11,6 4,7 - - 28 15 61 33 ZO 1001,2 45 0 0,0
16.10.2018 10:00:00 10,1 4,3 10,2 10,9 18 10 - - ZO 1001,8 45 0 0,6
16.10.2018 09:00:00 10,3 2,7 - - 18 10 - - ZO 1003,1 21 0 0,0
16.10.2018 08:00:00 10,6 2,0 - - 11 6 - - ONO 1004,5 50 0 0,0
16.10.2018 07:00:00 10,1 2,3 - - 16 9 - - OZO 1004,9 35 0 0,0
16.10.2018 06:00:00 9,9 2,4 - - 26 14 - - OZO 1005,8 50 0 0,0
16.10.2018 05:00:00 9,6 2,7 - - 16 9 - - O 1006,9 50 0 0,0
16.10.2018 04:00:00 9,5 3,2 - - 16 9 - - OZO 1007,8 50 0 0,0
16.10.2018 03:00:00 10,3 2,2 - - 21 11 - - ZZO 1009,4 50 0 0,0
16.10.2018 02:00:00 10,4 2,7 - - 26 14 - - ZO 1009,9 50 0 0,0
16.10.2018 01:00:00 10,5 3,6 - - 21 11 - - ZO 1010,3 40 - 0,0
16.10.2018 00:00:00 10,5 4,0 - - 9 5 - - OZO 1011,3 40 0 0,0
15.10.2018 23:00:00 10,4 4,9 - - 13 7 - - ZZO 1012,3 40 0 0,0
15.10.2018 22:00:00 10,7 6,1 - - 15 8 - - Z 1012,8 50 0 0,0
15.10.2018 21:00:00 7,1 6,1 - - 8 4 - - NNW 1013,2 50 0 0,0
15.10.2018 20:00:00 6,0 4,0 - - 2 1 - - O 1013,6 50 0 0,0
15.10.2018 19:00:00 6,8 3,8 - - 11 6 - - O 1013,8 45 0 0,0
15.10.2018 18:00:00 9,3 5,0 - - 11 6 - - Z 1013,0 50 6 0,0
15.10.2018 17:00:00 10,7 5,8 - - 9 5 - - ZZW 1012,9 50 18 0,0
15.10.2018 16:00:00 12,1 5,2 - - 11 6 - - ZZW 1012,8 45 54 0,0
15.10.2018 15:00:00 12,2 5,4 - - 13 7 - - ZZW 1012,7 40 30 0,0
15.10.2018 14:00:00 12,5 6,0 - - 15 8 - - ZZW 1012,7 35 36 0,0
15.10.2018 13:00:00 13,6 6,0 - - 15 8 - - ZZW 1012,7 40 60 0,0
15.10.2018 12:00:00 13,0 6,0 - - 16 9 - - Z 1012,7 40 60 0,0
15.10.2018 11:00:00 12,0 5,6 - - 15 8 - - Z 1012,2 50 60 0,0
15.10.2018 10:00:00 10,5 5,6 10,2 11,0 11 6 - - ZZO 1012,1 50 24 0,0
15.10.2018 09:00:00 8,8 5,0 - - 4 2 - - WZW 1011,8 45 0 0,0
15.10.2018 08:00:00 8,4 4,7 - - 5 3 - - ZW 1011,4 50 0 0,0
15.10.2018 07:00:00 8,3 4,5 - - 8 4 - - WZW 1011,1 50 0 0,0
15.10.2018 06:00:00 8,2 4,2 - - 8 4 - - Z 1010,7 50 0 0,0
15.10.2018 05:00:00 8,5 4,0 - - 21 11 - - Z 1010,6 50 0 0,0
15.10.2018 04:00:00 8,5 4,0 - - 15 8 - - Z 1010,7 50 0 0,0
15.10.2018 03:00:00 7,8 3,9 - - 9 5 - - Z 1010,9 50 0 0,0
15.10.2018 02:00:00 6,8 3,6 - - 4 2 - - O 1010,7 50 0 0,0
15.10.2018 01:00:00 6,8 3,9 - - 11 6 - - N 1010,4 50 - 0,0
15.10.2018 00:00:00 5,4 2,8 - - 5 3 - - ZO 1010,5 45 0 0,0
14.10.2018 23:00:00 6,3 3,0 - - 8 4 - - ZW 1010,1 50 0 0,0
14.10.2018 22:00:00 6,1 2,3 - - 8 4 - - ZZW 1010,0 50 0 0,0
14.10.2018 21:00:00 7,1 2,8 - - 11 6 - - Z 1009,7 50 0 0,0

tt = temperatuur
td = dauwpunt
tt -20cm = temperatuur -20cm
tt -100cm = temperatuur -100cm
ff = windsnelheid
fx = windstoten
dd = windrichting
ppp = luchtdruk
vv = zicht
sd = Zonneschijnduur
rr = neerslag

Weerstations in de omgeving